Regional Weather Roundup
Issued by NWS

Home | Current Version | Previous Version | Graphics & Text | Print | Product List | Glossary On
Versions: 1 2 3 4 5 6 7 8 9 10 11 12 13 14 15 16 17 18 19 20 21 22 23 24 25 26 27 28 29 30 31 32 33 34 35 36 37 38 39 40 41 42 43 44 45 46 47 48 49 50
000
ASUS43 KLOT 240409
RWRIL

ILLINOIS REGIONAL WEATHER ROUNDUP
NATIONAL WEATHER SERVICE CHICAGO/ROMEOVILLE IL
1000 PM CST THU NOV 23 2017

NOTE: "FAIR" INDICATES FEW OR NO CLOUDS BELOW 12,000 FEET WITH NO
SIGNIFICANT WEATHER AND/OR OBSTRUCTIONS TO VISIBILITY.

* THESE STATIONS ARE NOT UNDER NWS QUALITY CONTROL. THEY ALSO MAY NOT
  REPORT WEATHER SUCH AS PRECIPITATION OR FOG.

ILZ001-002-007-009-015-016-024-240500-
NORTHWEST ILLINOIS

CITY           SKY/WX    TMP DP  RH WIND       PRES   REMARKS
MOLINE         CLEAR     30  25  81 CALM      29.90S
STERLING*      CLEAR     35  27  72 CALM      29.90F
SAVANNA*       CLEAR     31  26  81 S5        29.89S WCI  26
$$

ILZ003-004-008-010-011-017-018-240500-
NORTH CENTRAL ILLINOIS

CITY           SKY/WX    TMP DP  RH WIND       PRES   REMARKS
ROCKFORD       CLEAR     32  24  72 S3        29.91S
FREEPORT*      CLEAR     33  26  75 S10       29.89F WCI  25
ROCHELLE*      CLEAR     29  26  90 S5        29.90F WCI  24
DE KALB*       CLEAR     29  26  87 SW7       29.90S WCI  22
PERU*          CLEAR     34  26  71 SW6       29.91F WCI  29
$$

ILZ005-006-012>014-019>023-240500-
NORTHEAST ILLINOIS

CITY           SKY/WX    TMP DP  RH WIND       PRES   REMARKS
CHICAGO-OHARE  CLEAR     34  26  72 S5        29.90S WCI  30
CHICAGO-MIDWAY CLEAR     37  27  67 S6        29.92S WCI  32
AURORA         CLEAR     33  26  75 S7        29.91F WCI  27
LANSING*       CLEAR     31  29  89 S3        29.94S
JOLIET*        CLEAR     29  27  90 S3        29.92F
WAUKEGAN       CLEAR     31  25  78 CALM      29.88F
DUPAGE AIRPORT CLEAR     30  26  85 S5        29.90F WCI  25
KANKAKEE*      CLEAR     33  28  82 SW6       29.95S WCI  28
WHEELING       CLEAR     32  26  78 SE5       29.92S WCI  27
MORRIS*        CLEAR     32  26  77 S6        29.91F WCI  27
ROMEOVILLE*    CLEAR     32  27  81 S6        29.92F WCI  27
NORTHERLY ISL    N/A     40  26  58 SW6         N/A
$$

LMZ740>746-240500-
SOUTHERN LAKE MICHIGAN

STATION/POSITION SKY/WX   TEMP    WIND        PRES    VSBY  WAVE
                          AIR SEA DIR/SP/G                  HT/PER
                          (F)     (DEG/KT/KT) (MB)    (MI)  (FT/S)
SOUTHERN BUOY              44 47  250/ 14/ 16 1013.0F         1/ 3
HARRISON CRIB              43     200/  9/ 10   N/A
BURNHAM HARBOR             40     190/  4/  6   N/A
CALUMET HARBOR             38     190/  4/  5 1012.8R
BURNS HARBOR               38     190/  9/ 11 1014.2
MICHIGAN CITY              38     170/ 12/ 13   N/A
$$

ILZ025>027-034>036-040-047-049-050-058-095>099-240500-
WEST-CENTRAL ILLINOIS

CITY           SKY/WX    TMP DP  RH WIND       PRES   REMARKS
QUINCY         CLEAR     37  29  72 S7        29.92S WCI  32
GALESBURG*     CLEAR     33  29  83 SW3       29.92S
MACOMB*        CLEAR     34  28  79 CALM      29.94S
JACKSONVILLE*  CLOUDY    33  28  82 S6        29.93F WCI  27
PITTSFIELD*    CLEAR     33  28  81 SW3       29.94S
$$

ILZ028>032-037-038-041>044-048-051>054-059>061-240500-
CENTRAL ILLINOIS

CITY           SKY/WX    TMP DP  RH WIND       PRES   REMARKS
PONTIAC        CLEAR     30  28  94 S3        29.94F
BLOOMINGTON    CLOUDY    34  27  75 S5        29.95F WCI  30
DECATUR        CLEAR     34  27  75 S3        29.96F
PEORIA         CLEAR     32  26  78 CALM      29.93F
LACON*         CLEAR     30  26  84 S5        29.91F WCI  25
LINCOLN*       CLEAR     32  30  90 CALM      29.95S
SPRINGFIELD    CLOUDY    32  27  81 S3        29.96S
TAYLORVILLE    CLEAR     36  27  71 S5        29.97S WCI  32
$$

ILZ033-039-045-046-055>057-062-063-240500-
EAST-CENTRAL ILLINOIS

CITY           SKY/WX    TMP DP  RH WIND       PRES   REMARKS
CHAMPAIGN      CLEAR     34  27  75 S10       29.96S WCI  26
DANVILLE*      CLEAR     35  26  69 S7        29.95S WCI  29
RANTOUL*       CLEAR     35  30  82 S5        29.96S WCI  31
MATTOON        CLEAR     37  26  64 S7        29.96S WCI  32
PARIS*         CLEAR     32  28  83 S8        29.99S WCI  25
$$

ILZ079-100>102-240500-
SOUTHWEST ILLINOIS

CITY           SKY/WX    TMP DP  RH WIND       PRES   REMARKS
ALTON          CLEAR     32  28  86 SE5       29.97S WCI  27
BELLEVILLE     CLEAR     35  28  75 CALM      29.96S
CAHOKIA*       CLEAR     35  27  72 CALM      29.97R
SPARTA*        CLEAR     42  29  60 S8        29.99S
$$

ILZ064>066-069>071-074>076-080>082-084>086-088>090-092>094-240500-
SOUTH-CENTRAL ILLINOIS

CITY           SKY/WX    TMP DP  RH WIND       PRES   REMARKS
CARBONDALE     CLEAR     39  29  67 S8        30.00S WCI  33
CAIRO*         CLEAR     34  28  79 CALM      30.03S
EFFINGHAM*     CLEAR     35  27  71 SE3       29.99F
MARION         CLEAR     38  29  70 S6        30.01S WCI  33
MT. VERNON     CLEAR     29  27  92 S3        30.00S
CENTRALIA*     CLEAR     39  28  65 S7        29.98S WCI  34
SALEM*         CLEAR     40  26  55 S5        29.98F
METROPOLIS*    CLEAR     33  27  79 CALM      30.04S
$$

ILZ067-068-072-073-078-083-087-091-240500-
SOUTHEAST ILLINOIS

CITY           SKY/WX    TMP DP  RH WIND       PRES   REMARKS
LAWRENCEVILLE  CLEAR     35  25  66 S5        30.01S WCI  31
FLORA*         CLEAR     34  26  73 S3        30.00S
FAIRFIELD*     CLEAR     38  25  60 CALM      30.00S
HARRISBURG*    CLEAR     32  28  83 SE3       30.02S
ROBINSON*      CLEAR     29  24  80 CALM      30.02R
CARMI*         CLEAR     32  27  80 S6        30.01S WCI  26
$$

ABBREVIATIONS USED IN REMARKS
   TC - TEMPERATURE IN CELSIUS
  WCI - WIND CHILL INDEX
   HX - HEAT INDEX
  VSB - VISIBILITY
$$





USA.gov is the U.S. government's official web portal to all federal, state and local government web resources and services.